Terminal Aerodrome Forecast
Issued by NWS Pueblo, CO

Home | Current Version | Previous Version | Text Only | Print | Product List | Glossary On
Versions: 1 2 3 4 5 6 7 8 9 10 11 12 13 14 15 16 17 18 19 20 21 22 23 24 25 26 27 28 29 30 31 32 33 34 35 36 37 38 39 40 41 42 43 44 45
000
FTUS45 KPUB 292321
TAFPUB
TAF
KPUB 292321Z 3000/3024 12010KT P6SM FEW100
     FM300200 08007KT P6SM SKC
     FM300500 VRB06KT P6SM SKC
     FM302000 13010KT P6SM FEW110 SCT200=

USA.gov is the U.S. government's official web portal to all federal, state and local government web resources and services.